Showing default

COSMOS 2285, 23189

Orbit data source: Space-Track

COSMOS 2285, 23189 is a payload satellite owned by TsSKB (CIS) in LEO that was launched on Tue, 02 Aug 1994 UTC via a KOSMOS 11K65M launch vehicle from the Plesetsk Missile And Space Complex (PKMTR). Payload-class satellites include a variety of spacecraft equipped with specific instruments for various scientific and technological missions. These include communications satellites like Starlink; space stations such as the ISS; scientific satellites like the Hubble; Earth observation satellites from companies like Planet Labs, Umbra, and HawkEye 360; GPS; miniature CubeSats for education and research; and military/defense satellites.

Loading next visibility...
Identifier
23189, 1994-045A
Orbit
LEO
Last TLE update
13 hours ago
Origin
Manufacturer
TsSKB
Mission
Defense Imaging
Bus & Motor
OBZOR, Unknown motor
Mass
~900 kg wet, ~900 kg dry
Launch date (UTC)
1994-08-02 (31 years ago)
Launch vehicle
KOSMOS 11K65M
Launch site
Plesetsk Missile And Space Complex (PKMTR)
Object type
Payload
Rocket body
Debris
Shape & HBR
Cyl, 5 m
Radar Cross Section
9.978 m², Large (>1 m²)

Expand to show TLE details & history

TLE from 13 hours ago
0 COSMOS 2285
1 23189U 94045A   25189.82472630 -.00000009  00000-0  14705-4 0  9993
2 23189  74.0307 320.9154 0024866  32.1700  78.2618 13.72489792549281
Epoch: 2025-07-08T19:47Z
TLE epoch observation values (Epoch: 2025-07-08T19:47:36.352Z)
Latitude
64.16083°
Longitude
-119.00597°
Altitude
997.655 km
Speed
7.361 km/s
True Right ascension
06h 59m 38s
True Declination
64° 01' 48"
Sunlit
Object was in daylight at epoch
Visualization orbit readout
Latitude
3.44847°
Longitude
-84.848°
Altitude
1,007.819 km
Speed
7.341 km/s
Apparent Right ascension
08h 58m 15s
Apparent Declination
-16° 32' 52"
Sunlit
Object is in daylight
Visualization observer readout
Local Sidereal Time
20:31:07
Azimuth
343.901° N
Elevation
-65.899°
Doppler factor
1
Orbital elements
Apogee altitude
1,006.659 km
Perigee altitude
970.024 km
Semi-major axis
7,366.478 km
Eccentricity
0.00249
Inclination
74.0307°
RAAN
320.9154°
Arg. of periapsis
32.17°
True anomaly
Unknown
Mean anomaly
78.2618°
Eccentric anomaly
Unknown
Mean motion
3.43284 °/min
Orbital period
104.87 mins
BSTAR
0.000014705
Loading maneuver chart data...
Loading SW <> Apogee altitude chart data...
Loading historical data...
Loading historical data...
Loading historical data...
Loading historical data...
Loading historical data...
Loading historical data...
Loading historical data...
Other satellites on launch #45 in the year 1994 (1994-08-02 UTC)

COSMOS 2285 Visibility forecast

Observer location: undefined°, undefined°

Span
Click to sort rows by Start time (UTC) header in descending order
Start Az.
Max El. time (UTC)
Max El. Az.
Max El.
End time (UTC)
End Az.
11 mins2025-07-09 09:21:28.716Z170.139° S2025-07-09 09:26:28.716Z108.28° ESE35.376°2025-07-09 09:32:28.716Z31.825° NE
8 mins2025-07-09 11:10:28.716Z255.606° W2025-07-09 11:13:28.716Z294.638° NW25.358°2025-07-09 11:18:28.716Z354.574° N
7 mins2025-07-09 18:34:28.716Z19.51° NNE2025-07-09 18:37:28.716Z52.252° ENE18.883°2025-07-09 18:41:28.716Z95.457° ESE
11 mins2025-07-09 20:20:28.716Z334.238° NNW2025-07-09 20:25:28.716Z240.331° WSW43.15°2025-07-09 20:31:28.716Z172.59° S
|